星链-30056 (STARLINK-30056 )

导读 | 豆包AI

STARLINK-30056是美国SpaceX星链星座的第二代低轨通信卫星,于2023年8月11日发射入轨,属于星链全球卫星互联网组网的组成部分。该卫星运行在近地轨道,轨道倾角约53度,近地点约546公里,周期约95.6分钟,每日绕地球运行约15圈。它配备星间激光通信终端,可实现高速星际数据传输,为全球尤其是偏远地区提供宽带互联网接入服务,助力星链完成全球无缝覆盖的太空互联网布局。

基本信息
目录编号:
57622
目录名称:
STARLINK-30056
国际标识:
2023-119W
轨道中心:
EARTH
卫星名称:
星链-30056
卫星全名:
星链-30056 (STARLINK-30056 )
卫星状态:
在轨 (已飞行993 天)
发射日期:
2023-08-11 UTC
国别 :
美国 (US)
星等 :
--
轨道信息
数据来源 国际轨道数据
星历时间: 2026-04-30T11:05:49+0800
11小时前
查看轨道信息
半长轴: 6861.197km
偏心率: 0.0001086
轨道倾角: 43.001°
近地点辐角 274.372°
升交点赤经 151.031°
平近点角 85.701°
近地点: 482.314km
远地点: 483.806km
周期: 94.267分钟
每日圈数: 15.275765
详细信息
固有亮度:
5
最大亮度:
0.3
卫星平台:
Starlink v2.0 mini
覆盖范围:
全球
运营商:
太空探索技术公司
运营商所在国:
美国
制造商(研发单位):
太空探索技术公司
制造商所在国:
美国
使用方式:
暂无
卫星简介
星链(Starlink)计划是由太空探索技术公司(SpaceX)提出的一个巨型低轨卫星互联网星座项目,计划在2019年至2024年间在太空搭建由约1.2万颗卫星组成的“星链”网络,其中1584颗将部署在地球上空550千米处的近地轨道,并从2020年开始工作。该卫星仍在工作。
2D轨道图
3D轨道图
轨道高度分析图
轨道倾角分析图
轨道综合分析图
查看轨道综合分析图